"Pseudo-MPEC" for C1HM1H2

Created 2019 Dec 3 13:07:19 UT using Find_Orb

Click here for an explanation of pseudo-MPECs

 
 Astrometry: 
     C1HM1H2  C2019 11 29Pd]!KsXxQx!(G`s6?kB+2uhqmf'F9WdP36IE4Uxj]E*_r@Xdbdv7F51
     C1HM1H2  C2019 12 02.38669 08 02 46.20 +34 00 57.1    ~C2AM 21.4 GVNEOCPG96
     C1HM1H2  C2019 12 02.39190 08 02 48.75 +34 01 13.7    ~C2AM 20.9 GVNEOCPG96
     C1HM1H2  C2019 12 02.39709 08 02 51.32 +34 01 30.8    ~C2AM 21.3 GVNEOCPG96
     C1HM1H2  C2019 12 02.40230 08 02 53.89 +34 01 47.4    ~C2AM 20.6 GVNEOCPG96
     C1HM1H2  C2019 12 02.45036 08 03 17.58 +34 04 22.5    ~C2BM 20.9 GVNEOCPI52
     C1HM1H2  C2019 12 02.45286 08 03 18.79 +34 04 30.4    ~C2BM 20.9 GVNEOCPI52
     C1HM1H2  C2019 12 02.45536 08 03 19.65 +34 04 36.0    ~C2BM 20.4 GVNEOCPI52
     C1HM1H2  C2019 12 02.45786 08 03 21.26 +34 04 46.6    ~C2BM 21.4 GVNEOCPI52
     C1HM1H2  C2019 12 03.28386 08 10 43.29 +34 49 59.8    ~C37M 21.0 GVNEOCPG96
     C1HM1H2  C2019 12 03.28496 08 10 43.85 +34 50 03.7    ~C37M 21.1 GVNEOCPG96
     C1HM1H2  C2019 12 03.28606 08 10 44.48 +34 50 07.5    ~C37M 21.1 GVNEOCPG96
     C1HM1H2  C2019 12 03.38796 08 11 40.37 +34 55 58.9    ~C39q 21.0 GVNEOCPI52
     C1HM1H2  C2019 12 03.39046 08 11 41.80 +34 56 06.7    ~C39q       VNEOCPI52
     C1HM1H2  C2019 12 03.39296 08 11 43.21 +34 56 15.8    ~C39q 20.2 GVNEOCPI52

Station data:
(F51) Pan-STARRS 1, Haleakala  (N20.707235 W156.255910)  US/Hawaii.
   Observers N. Primak, A. Schultz, S. Watters, J. Thiel, T. Goggia. Measurer
   PS1 Science Consortium. 1.8-m Ritchey-Chrétien + CCD.
(G96) Mt. Lemmon Survey  (N32.442754 W110.788720)  US/Arizona.  Observers T.
   A. Pruyne, B. M. Africano, E. J. Christensen, G. A. Farneth, D. C. Fuls,
   A. R. Gibbs, A. D. Grauer, H. Gröller, J. A. Johnson, R. A. Kowalski, S.
   M. Larson, G. J. Leonard, D. Rankin, R. L. Seaman, F. C. Shelly. 1.5-m
   reflector + 10K CCD.
(I52) Steward Observatory, Mt. Lemmon Station  (N32.442547 W110.788920)
   US/Arizona.  Observers T. A. Pruyne, B. M. Africano, E. J. Christensen, G.
   A. Farneth, D. C. Fuls, A. R. Gibbs, A. D. Grauer, H. Gröller, J. A.
   Johnson, R. A. Kowalski, S. M. Larson, G. J. Leonard, D. Rankin, R. L.
   Seaman, F. C. Shelly. 1.0-m reflector + CCD.

Orbital elements:  C1HM1H2
   Perihelion 2020 Jan 31.714831 +/- 0.92 TT = 17:09:21 (JD 2458880.214831)
Epoch 2019 Dec  3.0 TT = JDT 2458820.5   Earth MOID: 0.0788   Ve: 0.0148
M 341.21202094 +/- 2.9              Ma: 0.0253                AutoNEOCP
n   0.31462835 +/- 0.0456           Peri.  113.32927 +/- 0.9
a   2.14093824 +/- 0.207            Node    65.22301 +/- 0.44
e   0.7210065 +/- 0.0283            Incl.   12.35423 +/- 0.51
P   3.13                   H 22.4   G  0.15   U 10.7  
q 0.59730772 +/- 0.00314    Q 3.68456876 +/- 0.441
From 15 observations 2019 Nov. 29-Dec. 3; mean residual 0".96
Residuals in arcseconds: 
191129 F51  .08+  .16-    191202 I52  .79+  .38+    191203 G96  .42-  .04+    
191202 G96  .42+  .73+    191202 I52  .48+  .23+    191203 G96  .10-  .03+    
191202 G96  .29+  .43+    191202 I52  4.2-  2.2-    191203 I52  .36-  .10+    
191202 G96  .52+  .70+    191202 I52  .48+  .36+    191203 I52  .35+  .67-    
191202 G96  .63+  .42+    191203 G96  .12+  .05-    191203 I52  .81+  .14-    

Ephemerides (geocentric):
Date (UTC) HH   RA              Dec         delta   r     elong  mag " sig PA
---- -- -- --  -------------   -----------  ------ ------ -----  --- ---- ---
2019 12 03 13  08 13 06.792   +35 04 41.02  .24050 1.1588 131.4 21.2 .767 116
2019 12 03 14  08 13 30.729   +35 07 03.37  .24000 1.1583 131.3 21.2 .803 117
2019 12 03 15  08 13 54.779   +35 09 26.02  .23950 1.1578 131.3 21.2 .839 118
2019 12 03 16  08 14 18.943   +35 11 48.97  .23901 1.1573 131.2 21.2 .875 119
2019 12 03 17  08 14 43.220   +35 14 12.20  .23851 1.1568 131.2 21.2 .912 119
2019 12 03 18  08 15 07.612   +35 16 35.73  .23801 1.1563 131.1 21.1 .949 120
2019 12 03 19  08 15 32.119   +35 18 59.55  .23752 1.1558 131.1 21.1 .987 121
2019 12 03 20  08 15 56.742   +35 21 23.65  .23702 1.1553 131.1 21.1 1.02 122
2019 12 03 21  08 16 21.483   +35 23 48.05  .23653 1.1548 131.0 21.1 1.06 122
2019 12 03 22  08 16 46.341   +35 26 12.73  .23603 1.1543 131.0 21.1 1.10 123
2019 12 03 23  08 17 11.317   +35 28 37.69  .23554 1.1538 130.9 21.1 1.14 124
2019 12 04 00  08 17 36.413   +35 31 02.94  .23505 1.1533 130.9 21.1 1.18 124
2019 12 04 01  08 18 01.628   +35 33 28.46  .23456 1.1528 130.8 21.1 1.22 125
2019 12 04 02  08 18 26.964   +35 35 54.27  .23406 1.1523 130.8 21.1 1.26 126
2019 12 04 03  08 18 52.422   +35 38 20.35  .23357 1.1518 130.7 21.1 1.30 126
2019 12 04 04  08 19 18.002   +35 40 46.71  .23308 1.1513 130.7 21.1 1.35 127
2019 12 04 05  08 19 43.705   +35 43 13.34  .23260 1.1508 130.6 21.1 1.39 128
2019 12 04 06  08 20 09.532   +35 45 40.25  .23211 1.1503 130.6 21.1 1.43 128
2019 12 04 07  08 20 35.484   +35 48 07.42  .23162 1.1498 130.5 21.1 1.47 129
2019 12 04 08  08 21 01.561   +35 50 34.87  .23113 1.1493 130.5 21.1 1.52 130
2019 12 04 09  08 21 27.764   +35 53 02.58  .23065 1.1488 130.5 21.1 1.56 130
2019 12 04 10  08 21 54.095   +35 55 30.55  .23016 1.1483 130.4 21.1 1.60 131
2019 12 04 11  08 22 20.553   +35 57 58.79  .22968 1.1478 130.4 21.1 1.65 131
2019 12 04 12  08 22 47.140   +36 00 27.28  .22919 1.1472 130.3 21.1 1.69 132
2019 12 04 13  08 23 13.856   +36 02 56.03  .22871 1.1467 130.3 21.1 1.74 133
2019 12 04 14  08 23 40.703   +36 05 25.04  .22823 1.1462 130.2 21.1 1.79 133
2019 12 04 15  08 24 07.681   +36 07 54.30  .22775 1.1457 130.1 21.1 1.83 134
2019 12 04 16  08 24 34.791   +36 10 23.81  .22727 1.1452 130.1 21.1 1.88 134
2019 12 04 17  08 25 02.034   +36 12 53.57  .22678 1.1447 130.0 21.1 1.93 135
2019 12 04 18  08 25 29.411   +36 15 23.57  .22631 1.1442 130.0 21.1 1.97 135
2019 12 04 19  08 25 56.923   +36 17 53.82  .22583 1.1437 129.9 21.0 2.02 136
2019 12 04 20  08 26 24.569   +36 20 24.30  .22535 1.1432 129.9 21.0 2.07 137
2019 12 04 21  08 26 52.353   +36 22 55.03  .22487 1.1427 129.8 21.0 2.12 137
2019 12 04 22  08 27 20.273   +36 25 25.99  .22440 1.1422 129.8 21.0 2.17 138
2019 12 04 23  08 27 48.331   +36 27 57.18  .22392 1.1417 129.7 21.0 2.22 138
2019 12 05 00  08 28 16.529   +36 30 28.60  .22344 1.1412 129.7 21.0 2.27 139
2019 12 05 01  08 28 44.866   +36 33 00.24  .22297 1.1407 129.6 21.0 2.32 140
2019 12 05 02  08 29 13.344   +36 35 32.11  .22250 1.1402 129.6 21.0 2.37 140
2019 12 05 03  08 29 41.963   +36 38 04.19  .22202 1.1397 129.5 21.0 2.42 141
2019 12 05 04  08 30 10.725   +36 40 36.50  .22155 1.1392 129.4 21.0 2.48 141
2019 12 05 05  08 30 39.631   +36 43 09.02  .22108 1.1387 129.4 21.0 2.53 142
2019 12 05 06  08 31 08.681   +36 45 41.74  .22061 1.1382 129.3 21.0 2.58 143
2019 12 05 07  08 31 37.876   +36 48 14.68  .22014 1.1377 129.3 21.0 2.64 143
2019 12 05 08  08 32 07.217   +36 50 47.81  .21967 1.1372 129.2 21.0 2.69 144
2019 12 05 09  08 32 36.705   +36 53 21.15  .21921 1.1366 129.1 21.0 2.75 144
2019 12 05 10  08 33 06.341   +36 55 54.68  .21874 1.1361 129.1 21.0 2.80 145
2019 12 05 11  08 33 36.126   +36 58 28.41  .21827 1.1356 129.0 21.0 2.86 146
2019 12 05 12  08 34 06.062   +37 01 02.32  .21781 1.1351 129.0 21.0 2.92 146